period_start,C,m1,H,J0,J1,J2,J3,J4,J5,JA,JB,JC,JD,JJ,JK,JN,#
2016-02-08 00:00:56,0.05,1.49,0.00,16.04,19.72,23.74,14.97,48.47,1018.90,2063.92,3018.15,2770.41,3135.42,600.11,611.86,10.79,0000 0000 0000 0000 000000
2016-02-08 00:05:57,0.06,1.50,0.00,16.04,19.72,23.73,14.93,48.43,1018.68,2063.85,3016.89,2769.60,3134.61,599.94,611.55,10.84,0000 0000 0000 0000 000000
2016-02-08 00:10:58,0.05,1.50,0.00,16.06,19.74,23.77,14.90,48.45,1018.61,2063.83,3015.86,2768.81,3133.60,600.04,611.55,10.89,0000 0000 0000 0000 000000
2016-02-08 00:15:59,0.05,1.50,0.00,16.07,19.74,23.75,14.83,48.50,1018.57,2063.86,3014.79,2768.00,3132.68,599.54,611.02,10.94,0000 0000 0000 0000 000000
2016-02-08 00:21:00,0.03,1.51,0.00,16.08,19.76,23.82,14.95,48.42,1018.57,2063.54,3013.67,2767.12,3131.67,599.72,611.25,10.99,0000 0000 0000 0000 000000
2016-02-08 00:26:02,0.04,1.51,0.00,16.10,19.77,23.80,14.92,48.42,1018.57,2063.19,3012.63,2766.30,3130.74,600.02,611.48,11.04,0000 0000 0000 0000 000000
2016-02-08 00:31:03,0.04,1.51,0.00,16.13,19.79,23.84,14.87,48.47,1018.57,2063.24,3011.66,2765.71,3129.98,599.68,610.99,11.09,0000 0000 0000 0000 000000
2016-02-08 00:36:04,0.03,1.51,0.00,16.14,19.79,23.87,14.85,48.48,1018.57,2063.16,3010.74,2765.00,3129.14,599.67,610.94,11.14,0000 0000 0000 0000 000000
2016-02-08 00:41:05,0.05,1.51,0.00,16.13,19.81,23.83,14.98,48.44,1018.57,2063.04,3009.83,2764.21,3128.23,600.32,611.67,11.19,0000 0000 0000 0000 000000
2016-02-08 00:46:06,0.07,1.52,0.00,16.15,19.82,23.87,14.93,48.44,1018.56,2063.02,3008.65,2763.50,3127.36,600.14,611.42,11.24,0000 0000 0000 0000 000000
2016-02-08 00:51:08,0.06,1.52,0.00,16.17,19.84,23.88,14.91,48.49,1018.44,2063.03,3007.49,2762.65,3126.21,599.85,610.93,11.29,0000 0000 0000 0000 000000
2016-02-08 00:56:10,0.06,1.52,0.00,16.20,19.85,23.89,14.89,48.53,1018.27,2063.01,3006.33,2761.73,3125.24,599.82,610.93,11.34,0000 0000 0000 0000 000000
2016-02-08 01:01:11,0.05,1.53,0.00,16.21,19.87,23.90,14.97,48.54,1018.16,2063.01,3005.09,2760.95,3124.23,599.90,610.84,11.39,0000 0000 0000 0000 000000
2016-02-08 01:06:12,0.05,1.53,0.00,16.22,19.88,23.91,14.85,48.48,1018.23,2063.00,3004.06,2760.11,3123.47,599.71,610.74,11.44,0000 0000 0000 0000 000000
2016-02-08 01:11:13,0.08,1.53,0.00,16.27,19.89,23.87,14.99,48.63,1018.28,2063.00,3002.68,2759.36,3122.46,600.29,611.16,11.49,0000 0000 0000 0000 000000
2016-02-08 01:16:15,0.29,1.54,0.00,16.29,19.90,23.91,15.05,48.77,1018.17,2063.00,2998.28,2756.48,3119.34,600.17,610.96,11.54,0000 0000 0000 0000 000000
2016-02-08 01:21:16,0.55,1.57,0.00,16.28,19.92,23.96,14.94,48.74,1018.10,2063.00,2988.29,2750.27,3112.36,600.09,610.84,11.59,0000 0000 0000 0000 000000
2016-02-08 01:26:18,0.52,1.59,0.00,16.30,19.92,23.93,14.99,48.61,1018.08,2062.99,2977.72,2743.65,3104.95,600.21,610.94,11.64,0000 0000 0000 0000 000000
2016-02-08 01:31:19,0.54,1.62,0.00,16.33,19.94,23.90,14.85,48.58,1018.08,2062.99,2967.45,2737.12,3097.73,599.59,610.25,11.69,0000 0000 0000 0000 000000
2016-02-08 01:36:20,0.56,1.65,0.00,16.32,19.94,23.95,14.90,48.63,1018.08,2062.97,2956.45,2730.16,3090.05,600.01,610.73,11.74,0000 0000 0000 0000 000000
2016-02-08 01:41:21,0.46,1.68,0.00,16.33,19.96,23.93,14.89,48.60,1018.04,2062.98,2946.60,2724.00,3083.24,599.78,610.39,11.79,0000 0000 0000 0000 000000
2016-02-08 01:46:22,0.27,1.69,0.00,16.36,19.97,23.95,14.92,48.59,1017.87,2062.97,2940.75,2720.26,3079.18,599.68,610.27,11.84,0000 0000 0000 0000 000000
2016-02-08 01:51:24,0.21,1.71,0.00,16.37,19.99,23.99,14.92,48.61,1017.74,2062.90,2936.33,2717.51,3076.15,600.09,610.42,11.89,0000 0000 0000 0000 000000
2016-02-08 01:56:25,0.26,1.71,0.00,16.36,19.99,24.03,15.00,48.51,1017.82,2062.82,2931.29,2714.39,3072.72,600.31,610.67,11.94,0000 0000 0000 0000 000000
2016-02-08 02:01:26,0.22,1.73,0.00,16.36,20.01,23.99,14.86,48.56,1017.93,2062.63,2926.36,2711.32,3069.40,599.85,610.42,11.99,0000 0000 0000 0000 000000
2016-02-08 02:06:27,0.18,1.74,0.00,16.39,20.02,24.05,15.04,48.66,1017.79,2062.67,2922.52,2709.03,3066.84,600.33,610.65,12.04,0000 0000 0000 0000 000000
2016-02-08 02:11:28,0.15,1.75,0.00,16.40,20.04,24.02,14.93,48.44,1017.64,2062.31,2918.78,2706.75,3064.32,600.07,610.37,12.09,0000 0000 0000 0000 000000
2016-02-08 02:16:29,0.24,1.76,0.00,16.40,20.04,24.09,15.01,48.51,1017.61,2062.13,2914.30,2703.92,3061.17,600.12,610.22,12.14,0000 0000 0000 0000 000000
2016-02-08 02:21:30,0.25,1.77,0.00,16.44,20.06,24.07,15.00,48.61,1017.61,2062.11,2909.36,2700.91,3057.81,600.10,610.17,12.19,0000 0000 0000 0000 000000
2016-02-08 02:26:32,0.27,1.78,0.00,16.46,20.07,24.05,14.98,48.58,1017.59,2062.06,2904.38,2697.85,3054.41,599.91,609.95,12.25,0000 0000 0000 0000 000000
2016-02-08 02:31:34,0.33,1.80,0.00,16.46,20.09,24.07,14.91,48.51,1017.59,2062.02,2898.10,2693.94,3050.07,600.22,610.24,12.30,0000 0000 0000 0000 000000
2016-02-08 02:36:35,0.38,1.82,0.00,16.47,20.09,24.12,14.93,48.59,1017.59,2062.02,2891.01,2689.57,3045.29,600.03,610.09,12.35,0000 0000 0000 0000 000000
2016-02-08 02:41:36,0.37,1.84,0.00,16.47,20.11,24.12,14.99,48.60,1017.59,2062.01,2883.88,2685.22,3040.35,600.16,610.17,12.40,0000 0000 0000 0000 000000
2016-02-08 02:46:37,0.35,1.85,0.00,16.50,20.12,24.11,14.93,48.53,1017.59,2062.00,2877.18,2680.87,3035.47,599.89,609.87,12.45,0000 0000 0000 0000 000000
2016-02-08 02:51:39,0.25,1.87,0.00,16.50,20.13,24.12,14.86,48.43,1017.58,2062.00,2872.05,2677.51,3031.85,599.81,609.74,12.50,0000 0000 0000 0000 000000
2016-02-08 02:56:40,0.15,1.88,0.00,16.52,20.14,24.11,14.95,48.54,1017.59,2062.00,2868.81,2675.36,3029.39,600.16,610.12,12.55,0000 0000 0000 0000 000000
2016-02-08 03:01:41,0.12,1.89,0.00,16.53,20.15,24.14,14.88,48.60,1017.58,2062.00,2866.50,2673.84,3027.67,600.00,609.91,12.60,0000 0000 0000 0000 000000
2016-02-08 03:06:43,0.07,1.89,0.00,16.53,20.17,24.18,14.82,48.50,1017.58,2062.00,2865.02,2672.82,3026.46,599.89,609.94,12.65,0000 0000 0000 0000 000000
2016-02-08 03:11:43,0.06,1.89,0.00,16.56,20.17,24.15,14.94,48.65,1017.58,2062.00,2863.81,2671.96,3025.53,600.32,610.10,12.70,0000 0000 0000 0000 000000
2016-02-08 03:16:45,0.07,1.90,0.00,16.60,20.19,24.18,14.99,48.63,1017.56,2061.98,2862.61,2671.04,3024.42,600.31,610.07,12.75,0000 0000 0000 0000 000000
2016-02-08 03:21:46,0.07,1.90,0.00,16.62,20.19,24.17,14.90,48.61,1017.51,2061.98,2861.48,2670.13,3023.61,599.96,609.57,12.80,0000 0000 0000 0000 000000
2016-02-08 03:26:47,0.06,1.90,0.00,16.63,20.22,24.20,14.93,48.48,1017.36,2061.98,2860.42,2669.43,3022.70,599.81,609.34,12.85,0000 0000 0000 0000 000000
2016-02-08 03:31:48,0.06,1.91,0.00,16.61,20.23,24.21,14.94,48.42,1017.40,2061.98,2859.23,2668.59,3021.69,599.81,609.34,12.90,0000 0000 0000 0000 000000
2016-02-08 03:36:50,0.08,1.91,0.00,16.62,20.24,24.26,14.92,48.38,1017.28,2061.95,2857.83,2667.58,3020.58,599.89,609.44,12.95,0000 0000 0000 0000 000000
2016-02-08 03:41:51,0.06,1.92,0.00,16.64,20.26,24.28,14.94,48.42,1017.19,2061.88,2856.63,2666.75,3019.56,599.96,609.39,13.00,0000 0000 0000 0000 000000
2016-02-08 03:46:52,0.04,1.92,0.00,16.65,20.27,24.28,14.92,48.41,1017.17,2061.63,2855.43,2665.80,3018.50,599.93,609.45,13.05,0000 0000 0000 0000 000000
2016-02-08 03:51:53,0.09,1.92,0.00,16.66,20.29,24.28,15.00,48.50,1017.12,2061.23,2853.56,2664.42,3017.02,600.18,609.62,13.10,0000 0000 0000 0000 000000
2016-02-08 03:56:55,0.29,1.93,0.00,16.68,20.29,24.30,14.90,48.47,1017.12,2061.10,2848.63,2661.28,3013.51,599.98,609.35,13.15,0000 0000 0000 0000 000000
2016-02-08 04:01:56,0.23,1.95,0.00,16.69,20.31,24.27,14.90,48.53,1017.12,2061.09,2843.86,2658.21,3010.07,600.15,609.37,13.20,0000 0000 0000 0000 000000
2016-02-08 04:06:57,0.15,1.96,0.00,16.71,20.32,24.33,14.96,48.58,1017.11,2061.04,2840.65,2656.10,3007.79,600.21,609.50,13.25,0000 0000 0000 0000 000000
2016-02-08 04:11:59,0.12,1.96,0.00,16.72,20.33,24.34,14.93,48.64,1017.11,2061.03,2838.39,2654.51,3006.22,599.98,609.10,13.30,0000 0000 0000 0000 000000
2016-02-08 04:17:00,0.08,1.97,0.00,16.73,20.34,24.34,14.91,48.52,1017.11,2061.01,2836.91,2653.52,3005.00,600.31,609.53,13.35,0000 0000 0000 0000 000000
2016-02-08 04:22:01,0.43,1.98,0.00,16.76,20.35,24.36,14.88,48.45,1017.11,2061.01,2831.06,2649.66,3000.81,600.13,609.30,13.40,0000 0000 0000 0000 000000
2016-02-08 04:27:03,0.54,2.01,0.00,16.78,20.37,24.32,14.91,48.45,1017.11,2061.00,2820.92,2643.25,2993.72,600.05,609.11,13.45,0000 0000 0000 0000 000000
2016-02-08 04:32:04,0.33,2.03,0.00,16.77,20.37,24.43,14.98,48.48,1017.11,2061.00,2813.67,2638.69,2988.63,600.10,609.22,13.50,0000 0000 0000 0000 000000
2016-02-08 04:37:06,0.14,2.04,0.00,16.84,20.39,24.33,14.91,48.37,1017.11,2061.00,2810.58,2636.78,2986.51,600.32,609.30,13.55,0000 0000 0000 0000 000000
2016-02-08 04:42:07,0.26,2.05,0.00,16.89,20.40,24.37,14.87,48.40,1017.11,2061.00,2806.39,2634.16,2983.61,599.79,608.56,13.60,0000 0000 0000 0000 000000
2016-02-08 04:47:08,0.28,2.06,0.00,16.90,20.42,24.42,15.00,48.51,1017.11,2060.99,2801.08,2630.84,2979.88,599.88,608.69,13.65,0000 0000 0000 0000 000000
2016-02-08 04:52:09,0.28,2.08,0.00,16.92,20.42,24.40,14.85,48.34,1017.11,2060.99,2795.88,2627.57,2976.25,599.91,608.69,13.70,0000 0000 0000 0000 000000
2016-02-08 04:57:11,0.15,2.09,0.00,16.99,20.44,24.44,14.91,48.41,1017.11,2060.98,2792.72,2625.33,2973.74,600.09,608.76,13.75,0000 0000 0000 0000 000000
2016-02-08 05:02:12,0.08,2.10,0.00,17.03,20.45,24.44,14.71,48.21,1017.11,2060.98,2791.14,2624.10,2972.32,599.67,608.20,13.80,0000 0000 0000 0000 000000
2016-02-08 05:07:13,0.09,2.10,0.00,17.06,20.47,24.49,14.89,48.27,1017.13,2060.96,2789.60,2623.04,2970.99,599.85,608.23,13.85,0000 0000 0000 0000 000000
2016-02-08 05:12:15,0.08,2.10,0.00,17.10,20.49,24.49,14.76,48.15,1017.13,2060.88,2788.15,2622.02,2969.64,600.17,608.63,13.90,0000 0000 0000 0000 000000
2016-02-08 05:17:16,0.06,2.11,0.00,17.14,20.50,24.60,14.91,48.43,1017.16,2060.67,2786.88,2621.09,2968.57,600.31,608.76,13.95,0000 0000 0000 0000 000000
2016-02-08 05:22:18,0.04,2.11,0.00,17.14,20.52,24.64,14.87,48.46,1017.14,2060.49,2785.71,2620.18,2967.68,599.76,608.18,14.00,0000 0000 0000 0000 000000
2016-02-08 05:27:19,0.06,2.11,0.00,17.19,20.53,24.69,14.83,48.51,1017.18,2060.21,2784.20,2619.09,2966.43,599.90,608.20,14.05,0000 0000 0000 0000 000000
2016-02-08 05:32:20,0.13,2.12,0.00,17.24,20.55,24.72,14.84,48.37,1017.44,2060.08,2782.05,2617.66,2964.74,599.80,608.15,14.10,0000 0000 0000 0000 000000
2016-02-08 05:37:22,0.09,2.13,0.00,17.26,20.57,24.72,14.91,48.33,1017.52,2060.05,2780.13,2616.32,2963.24,600.00,608.41,14.15,0000 0000 0000 0000 000000
2016-02-08 05:42:23,0.08,2.13,0.00,17.26,20.59,24.75,14.88,48.44,1017.57,2060.01,2778.68,2615.38,2962.04,599.84,608.08,14.20,0000 0000 0000 0000 000000
2016-02-08 05:47:24,0.08,2.13,0.00,17.31,20.61,24.80,14.86,48.38,1017.59,2060.01,2777.26,2614.30,2960.79,600.13,608.34,14.25,0000 0000 0000 0000 000000
2016-02-08 05:52:25,0.09,2.14,0.00,17.33,20.63,24.83,14.86,48.34,1017.59,2060.00,2775.72,2613.19,2959.61,600.18,608.43,14.30,0000 0000 0000 0000 000000
2016-02-08 05:57:27,0.16,2.14,0.00,17.36,20.65,24.87,14.82,48.17,1017.59,2060.00,2773.24,2611.68,2957.73,599.95,608.09,14.35,0000 0000 0000 0000 000000
2016-02-08 06:02:28,0.24,2.15,0.00,17.39,20.68,24.90,14.83,48.17,1017.59,2059.99,2769.31,2609.09,2954.82,600.10,608.26,14.40,0000 0000 0000 0000 000000
2016-02-08 06:07:29,0.21,2.17,0.00,17.44,20.70,24.95,14.81,48.23,1017.59,2059.98,2765.47,2606.62,2952.11,599.77,607.86,14.45,0000 0000 0000 0000 000000
2016-02-08 06:12:31,0.36,2.18,0.00,17.48,20.73,24.99,14.85,48.23,1017.59,2059.96,2759.49,2602.96,2948.02,599.75,607.67,14.50,0000 0000 0000 0000 000000
2016-02-08 06:17:31,0.31,2.20,0.00,17.52,20.76,25.00,14.82,48.46,1017.59,2059.95,2753.31,2599.18,2943.86,599.31,607.18,14.56,0000 0000 0000 0000 000000
2016-02-08 06:22:32,0.17,2.21,0.00,17.52,20.78,25.03,14.86,48.52,1017.59,2059.73,2749.51,2596.63,2941.19,600.05,607.92,14.61,0000 0000 0000 0000 000000
2016-02-08 06:27:34,0.12,2.22,0.00,17.55,20.81,25.05,14.83,48.20,1017.59,2059.21,2746.21,2594.44,2938.74,599.97,607.71,14.66,0000 0000 0000 0000 000000
2016-02-08 06:32:35,0.06,2.22,0.00,17.58,20.84,25.04,14.80,48.20,1017.59,2059.03,2744.89,2593.49,2937.61,600.24,607.96,14.71,0000 0000 0000 0000 000000
2016-02-08 06:37:37,0.03,2.23,0.00,17.59,20.87,25.11,14.85,48.17,1017.59,2059.01,2744.06,2592.96,2936.90,599.84,607.55,14.76,0000 0000 0000 0000 000000
2016-02-08 06:42:38,0.06,2.23,0.00,17.59,20.90,25.10,14.89,48.43,1017.59,2059.00,2743.22,2592.18,2936.06,600.16,607.86,14.81,0000 0000 0000 0000 000000
2016-02-08 06:47:39,0.05,2.23,0.00,17.60,20.93,25.15,14.86,48.50,1017.61,2059.00,2742.50,2591.80,2935.47,599.96,607.73,14.86,0000 0000 0000 0000 000000
2016-02-08 06:52:40,0.04,2.23,0.00,17.63,20.95,25.12,14.82,48.24,1017.60,2058.98,2741.70,2591.04,2934.76,599.98,607.62,14.91,0000 0000 0000 0000 000000
2016-02-08 06:57:41,0.03,2.24,0.00,17.64,20.98,25.13,14.74,47.94,1017.59,2058.99,2740.96,2590.71,2934.03,599.61,607.16,14.96,0000 0000 0000 0000 000000
2016-02-08 07:02:43,0.05,2.24,0.00,17.64,21.02,25.20,14.82,48.19,1017.59,2058.94,2740.08,2590.02,2933.32,599.77,607.23,15.01,0000 0000 0000 0000 000000
2016-02-08 07:07:44,0.04,2.24,0.00,17.67,21.04,25.20,14.83,47.95,1017.59,2058.73,2739.23,2589.39,2932.65,599.55,607.12,15.06,0000 0000 0000 0000 000000
2016-02-08 07:12:45,-0.02,2.24,0.00,17.69,21.08,25.24,14.84,47.96,1017.60,2058.16,2738.46,2588.91,2931.92,599.74,607.24,15.11,0000 0000 0000 0000 000000
2016-02-08 07:17:46,0.05,2.24,0.00,17.72,21.11,25.28,14.80,47.89,1017.59,2058.03,2737.74,2588.12,2931.10,599.74,607.22,15.16,0000 0000 0000 0000 000000
2016-02-08 07:22:47,0.04,2.24,0.00,17.75,21.13,25.32,14.84,48.13,1017.59,2058.00,2736.86,2587.81,2930.40,599.89,607.31,15.21,0000 0000 0000 0000 000000
2016-02-08 07:27:49,0.05,2.25,0.00,17.76,21.16,25.26,14.87,48.28,1017.59,2058.00,2736.02,2587.05,2929.77,599.99,607.47,15.26,0000 0000 0000 0000 000000
2016-02-08 07:32:50,0.05,2.25,0.00,17.77,21.19,25.31,14.81,47.88,1017.59,2058.00,2735.14,2586.57,2929.01,600.03,607.35,15.31,0000 0000 0000 0000 000000
2016-02-08 07:37:52,0.04,2.25,0.00,17.75,21.21,25.32,14.81,48.05,1017.59,2057.98,2734.29,2586.01,2928.19,599.78,607.05,15.36,0000 0000 0000 0000 000000
2016-02-08 07:42:53,0.05,2.25,0.00,17.76,21.24,25.36,14.89,48.10,1017.59,2057.97,2733.58,2585.47,2927.75,600.03,607.39,15.41,0000 0000 0000 0000 000000
2016-02-08 07:47:54,0.02,2.26,0.00,17.78,21.26,25.34,14.84,48.13,1017.59,2057.89,2732.82,2585.00,2927.01,599.82,607.12,15.46,0000 0000 0000 0000 000000
2016-02-08 07:52:55,0.04,2.26,0.00,17.79,21.28,25.34,14.80,47.94,1017.59,2057.73,2732.01,2584.42,2926.25,599.91,607.23,15.51,0000 0000 0000 0000 000000
2016-02-08 07:57:56,-0.02,2.26,0.00,17.81,21.31,25.40,14.86,48.09,1017.59,2057.20,2731.17,2583.99,2925.68,599.93,607.27,15.56,0000 0000 0000 0000 000000
2016-02-08 08:02:58,0.05,2.26,0.00,17.82,21.33,25.36,14.81,48.19,1017.57,2057.05,2730.37,2583.24,2925.00,600.11,607.39,15.61,0000 0000 0000 0000 000000
2016-02-08 08:07:59,0.03,2.26,0.00,17.84,21.35,25.44,14.78,48.14,1017.58,2057.01,2729.56,2582.91,2924.21,599.96,607.11,15.66,0000 0000 0000 0000 000000
2016-02-08 08:13:01,0.05,2.26,0.00,17.83,21.38,25.44,14.84,48.07,1017.59,2057.00,2728.84,2582.11,2923.69,600.52,607.69,15.71,0000 0000 0000 0000 000000
2016-02-08 08:18:02,0.03,2.27,0.00,17.85,21.39,25.39,14.86,48.40,1017.59,2057.00,2727.97,2581.84,2923.00,600.01,607.16,15.76,0000 0000 0000 0000 000000
2016-02-08 08:23:03,0.06,2.27,0.00,17.86,21.42,25.43,14.81,48.29,1017.59,2057.00,2727.09,2581.07,2922.18,600.02,607.16,15.81,0000 0000 0000 0000 000000
2016-02-08 08:28:05,0.03,2.27,0.00,17.88,21.43,25.34,14.86,48.33,1017.59,2057.00,2726.29,2580.89,2921.65,600.17,607.27,15.86,0000 0000 0000 0000 000000
2016-02-08 08:33:06,0.05,2.27,0.00,17.90,21.45,25.48,14.82,48.36,1017.59,2056.98,2725.47,2580.09,2920.94,600.05,607.11,15.91,0000 0000 0000 0000 000000
2016-02-08 08:38:07,0.04,2.28,0.00,17.89,21.47,25.50,14.87,48.43,1017.60,2056.92,2724.64,2579.65,2920.10,600.48,607.63,15.96,0000 0000 0000 0000 000000
2016-02-08 08:43:08,0.02,2.28,0.00,17.90,21.49,25.50,14.78,48.30,1017.59,2056.64,2723.54,2578.94,2919.39,600.07,607.18,16.01,0000 0000 0000 0000 000000
2016-02-08 08:48:09,0.09,2.28,0.00,17.95,21.50,25.53,14.83,48.45,1017.59,2056.35,2721.63,2577.92,2918.17,600.12,607.11,16.06,0000 0000 0000 0000 000000
2016-02-08 08:53:10,0.10,2.29,0.00,17.96,21.52,25.53,14.92,48.35,1017.59,2056.32,2719.52,2576.86,2916.85,600.86,607.81,16.11,0000 0000 0000 0000 000000
2016-02-08 08:58:12,0.09,2.29,0.00,17.95,21.54,25.50,14.79,48.46,1017.62,2056.09,2717.46,2575.70,2915.56,599.79,606.79,16.16,0000 0000 0000 0000 000000
2016-02-08 09:03:13,0.26,2.30,0.00,17.95,21.55,25.53,14.90,48.31,1017.65,2056.02,2713.06,2573.15,2912.66,600.14,606.98,16.21,0000 0000 0000 0000 000000
2016-02-08 09:08:15,0.12,2.31,0.00,17.97,21.57,25.54,14.84,48.25,1017.61,2056.01,2710.32,2571.55,2910.72,600.06,606.99,16.26,0000 0000 0000 0000 000000
2016-02-08 09:13:16,0.07,2.31,0.00,17.99,21.58,25.60,14.80,48.23,1017.63,2056.01,2708.89,2570.73,2909.69,599.98,606.85,16.31,0000 0000 0000 0000 000000
2016-02-08 09:18:17,0.07,2.32,0.00,18.00,21.59,25.56,14.84,48.25,1017.64,2056.00,2707.60,2569.92,2908.74,600.16,606.92,16.36,0000 0000 0000 0000 000000
2016-02-08 09:23:18,0.09,2.32,0.00,18.02,21.61,25.53,14.82,48.22,1017.67,2056.00,2706.03,2568.92,2907.66,599.86,606.72,16.41,0000 0000 0000 0000 000000
2016-02-08 09:28:20,0.15,2.33,0.00,18.02,21.62,25.52,14.82,48.23,1017.66,2055.99,2703.38,2567.50,2905.82,600.37,607.23,16.46,0000 0000 0000 0000 000000
2016-02-08 09:33:21,0.09,2.34,0.00,18.03,21.64,25.59,14.80,48.39,1017.81,2055.99,2701.56,2566.27,2904.52,599.88,606.80,16.51,0000 0000 0000 0000 000000
2016-02-08 09:38:22,0.04,2.34,0.00,18.05,21.64,25.61,14.89,48.61,1017.73,2055.99,2700.50,2565.85,2903.85,600.24,607.10,16.56,0000 0000 0000 0000 000000
2016-02-08 09:43:24,0.06,2.34,0.00,18.06,21.66,25.62,14.82,48.34,1017.65,2055.98,2699.44,2565.03,2902.90,599.99,606.77,16.61,0000 0000 0000 0000 000000
2016-02-08 09:48:25,0.08,2.35,0.00,18.04,21.68,25.67,14.84,48.45,1017.63,2055.97,2697.98,2564.13,2901.90,600.10,606.95,16.66,0000 0000 0000 0000 000000
2016-02-08 09:53:26,0.29,2.35,0.00,18.06,21.69,25.66,14.77,48.15,1017.61,2055.92,2694.17,2561.84,2899.22,599.80,606.54,16.71,0000 0000 0000 0000 000000
2016-02-08 09:58:28,0.16,2.37,0.00,18.10,21.71,25.66,14.83,48.10,1017.59,2055.70,2689.52,2559.14,2896.00,599.63,606.27,16.76,0000 0000 0000 0000 000000
2016-02-08 10:03:29,0.07,2.37,0.00,18.09,21.72,25.66,14.84,48.16,1017.59,2055.33,2687.65,2558.08,2894.67,600.07,606.68,16.81,0000 0000 0000 0000 000000
2016-02-08 10:08:31,0.06,2.37,0.00,18.11,21.74,25.72,14.81,48.08,1017.59,2055.14,2686.45,2557.17,2893.78,599.89,606.51,16.86,0000 0000 0000 0000 000000
2016-02-08 10:13:32,0.13,2.38,0.00,18.10,21.75,25.72,14.83,48.14,1017.59,2055.09,2684.43,2556.12,2892.31,600.23,607.02,16.91,0000 0000 0000 0000 000000
2016-02-08 10:18:33,0.35,2.39,0.00,18.11,21.77,25.68,14.81,48.32,1017.59,2055.05,2678.81,2552.81,2888.65,600.08,606.72,16.96,0000 0000 0000 0000 000000
2016-02-08 10:23:34,0.50,2.42,0.00,18.14,21.77,25.75,14.92,48.28,1017.59,2055.02,2670.28,2547.94,2883.23,600.31,606.88,17.01,0000 0000 0000 0000 000000
2016-02-08 10:28:36,0.52,2.44,0.00,18.16,21.79,25.75,14.85,48.13,1017.59,2055.02,2660.92,2542.61,2877.40,599.91,606.43,17.07,0000 0000 0000 0000 000000
2016-02-08 10:33:37,0.66,2.47,0.00,18.17,21.79,25.79,14.82,48.11,1017.59,2055.00,2649.77,2535.97,2870.13,600.10,606.61,17.12,0000 0000 0000 0000 000000
2016-02-08 10:38:39,0.47,2.50,0.00,18.15,21.80,25.73,14.78,48.30,1017.59,2055.00,2640.73,2530.63,2864.21,599.89,606.41,17.17,0000 0000 0000 0000 000000
2016-02-08 10:43:40,0.50,2.52,0.00,18.16,21.82,25.73,14.80,48.42,1017.58,2055.00,2632.48,2525.70,2858.67,600.01,606.54,17.22,0000 0000 0000 0000 000000
2016-02-08 10:48:41,0.64,2.55,0.00,18.17,21.82,25.79,14.79,48.39,1017.55,2055.00,2622.16,2519.26,2851.56,599.79,606.27,17.27,0000 0000 0000 0000 000000
2016-02-08 10:53:42,0.43,2.58,0.00,18.16,21.84,25.78,14.84,48.36,1017.57,2054.98,2613.59,2514.24,2845.88,600.06,606.37,17.32,0000 0000 0000 0000 000000
2016-02-08 10:58:44,0.21,2.60,0.43,18.17,21.84,25.75,14.76,48.15,1017.57,2054.96,2608.96,2511.60,2842.91,599.47,606.00,17.37,0000 0000 0000 0000 000000
2016-02-08 11:03:45,0.07,2.60,1.00,18.19,21.86,25.84,14.82,48.35,1017.47,2054.96,2607.58,2510.73,2841.86,600.03,606.36,17.42,0000 0000 0000 0000 000000
2016-02-08 11:08:46,0.05,2.60,1.00,18.21,21.87,25.80,14.82,48.20,1017.42,2054.94,2606.51,2509.96,2840.95,600.13,606.47,17.47,0000 0000 0000 0000 000000
2016-02-08 11:13:48,0.07,2.61,1.00,18.20,21.89,25.87,14.79,48.21,1017.43,2054.80,2605.06,2509.07,2839.91,599.91,606.24,17.52,0000 0000 0000 0000 000000
2016-02-08 11:18:49,0.06,2.61,1.00,18.19,21.89,25.85,14.78,48.16,1017.31,2054.66,2604.09,2508.48,2839.06,599.77,606.07,17.57,0000 0000 0000 0000 000000
2016-02-08 11:23:50,0.01,2.61,1.00,18.19,21.92,25.84,14.80,48.33,1017.26,2054.44,2603.36,2508.01,2838.61,600.13,606.49,17.62,0000 0000 0000 0000 000000
2016-02-08 11:28:52,0.03,2.61,0.53,18.19,21.92,25.88,14.84,48.31,1017.25,2054.19,2602.57,2507.47,2837.99,600.00,606.38,17.67,0000 0000 0000 0000 000000
2016-02-08 11:33:53,0.04,2.62,0.00,18.22,21.94,25.91,14.85,48.32,1017.16,2054.14,2601.76,2507.01,2837.20,600.08,606.25,17.72,0000 0000 0000 0000 000000
2016-02-08 11:38:54,0.07,2.62,0.00,18.22,21.94,25.89,14.83,48.52,1017.13,2054.17,2600.68,2506.42,2836.61,600.00,606.09,17.77,0000 0000 0000 0000 000000
2016-02-08 11:43:55,0.07,2.62,0.00,18.23,21.95,25.85,14.84,48.54,1017.11,2054.11,2599.17,2505.58,2835.52,600.36,606.41,17.82,0000 0000 0000 0000 000000
2016-02-08 11:48:57,0.04,2.63,0.00,18.25,21.97,25.92,14.80,48.54,1017.11,2054.07,2598.02,2505.00,2834.79,600.23,606.28,17.87,0000 0000 0000 0000 000000
2016-02-08 11:53:58,0.06,2.63,0.00,18.25,21.97,25.95,14.77,48.30,1017.11,2054.03,2597.17,2504.45,2834.05,600.19,606.36,17.92,0000 0000 0000 0000 000000
2016-02-08 11:58:59,0.04,2.63,0.00,18.26,21.97,25.94,14.83,48.73,1017.11,2054.04,2596.40,2504.00,2833.47,600.08,606.05,17.97,0000 0000 0000 0000 000000
2016-02-08 12:04:01,0.05,2.63,0.00,18.26,21.99,25.93,14.75,48.50,1017.11,2054.01,2595.62,2503.42,2832.89,599.80,605.67,18.02,0000 0000 0000 0000 000000
2016-02-08 12:09:02,0.05,2.64,0.00,18.28,21.99,25.96,14.82,48.62,1017.10,2054.02,2594.60,2502.95,2832.07,600.36,606.37,18.07,0000 0000 0000 0000 000000
2016-02-08 12:14:03,0.07,2.64,0.00,18.27,22.00,25.91,14.87,48.70,1017.09,2054.02,2593.57,2502.13,2831.31,600.34,606.28,18.12,0000 0000 0000 0000 000000
2016-02-08 12:19:04,0.07,2.64,0.00,18.28,22.02,25.99,14.81,48.59,1017.06,2054.00,2592.48,2501.54,2830.40,600.31,606.28,18.17,0000 0000 0000 0000 000000
2016-02-08 12:24:06,0.03,2.65,0.00,18.28,22.02,25.98,14.82,48.59,1016.98,2054.00,2591.55,2501.00,2829.83,600.14,606.03,18.22,0000 0000 0000 0000 000000
2016-02-08 12:29:07,0.07,2.65,0.00,18.29,22.04,25.97,14.81,48.38,1017.01,2054.00,2590.68,2500.30,2829.05,599.87,605.81,18.27,0000 0000 0000 0000 000000
2016-02-08 12:34:09,0.03,2.65,0.00,18.29,22.04,26.02,14.86,48.44,1017.01,2054.00,2589.90,2499.99,2828.39,600.32,606.28,18.32,0000 0000 0000 0000 000000
2016-02-08 12:39:10,0.05,2.65,0.00,18.29,22.06,25.99,14.70,48.17,1016.99,2054.00,2589.07,2499.46,2827.95,599.50,605.40,18.37,0000 0000 0000 0000 000000
2016-02-08 12:44:11,0.05,2.66,0.00,18.30,22.07,26.05,14.84,48.32,1016.85,2054.00,2588.34,2498.95,2827.13,600.43,606.31,18.42,0000 0000 0000 0000 000000
2016-02-08 12:49:13,0.07,2.66,0.00,18.31,22.07,26.05,14.75,48.13,1016.71,2053.99,2587.45,2498.20,2826.49,599.75,605.45,18.47,0000 0000 0000 0000 000000
2016-02-08 12:54:14,0.02,2.66,0.00,18.31,22.09,26.05,14.78,48.27,1016.72,2053.98,2586.74,2497.98,2825.95,599.82,605.46,18.52,0000 0000 0000 0000 000000